Temperature
16 16 16 17 17 17 17 17 17 17 17 16 16 16 17 17 17 17 17 17 17 17 17 17 17 17 17 17 17 17 17 17 17 17 17 17 16 16 16 16 16 16 16
16 16 16 16 16 16 16 16 16 16 16 16 16 16 16 16 16 16 17 17 17 17 17 17 17 17 17 17 17 17 17 17 17 17 17 17 17 16 16 16 16 16 16
16 15 15 15 15 15 16 16 16 16 16 16 16 16 16 16 16 16 16 16 17 17 17 17 17 17 17 17 17 17 17 17 17 16 16 16 16 16 16 16 16 16 16
15 15 15 15 15 15 15 15 16 16 16 16 16 16 16 16 16 16 16 16 16 17 17 17 17 17 16 16 16 16 17 17 17 16 16 16 16 16 16 16 16 16 16
15 15 15 15 15 15 15 15 15 16 16 16 16 16 16 16 16 16 16 16 16 16 16 16 16 16 16 16 16 16 16 17 17 17 16 16 16 16 16 16 16 16 16
15 14 14 14 14 14 14 14 14 14 15 15 16 16 16 16 16 16 16 16 16 16 16 16 16 16 16 16 16 16 16 16 16 17 16 16 16 16 16 16 16 16 16
14 14 14 14 14 14 14 14 14 14 15 14 16 16 16 16 16 15 16 16 16 16 16 16 16 16 16 16 16 16 16 16 16 16 16 16 16 16 16 16 16 16 16
14 14 14 14 13 13 13 13 13 14 14 14 15 17 17 17 15 16 15 15 15 16 16 16 15 15 16 16 16 16 16 16 16 16 16 16 16 16 16 16 16 16 16
14 14 14 13 13 13 13 13 13 13 14 14 14 15 17 19 17 16 15 15 15 15 15 15 15 15 15 15 16 16 16 16 16 16 16 16 16 16 16 16 16 16 16
14 14 14 13 13 13 13 13 13 13 13 15 14 14 14 15 16 17 16 15 15 15 15 15 15 15 15 15 15 15 16 16 16 16 16 16 16 16 16 16 16 16 16
14 14 14 13 13 13 13 13 13 13 13 14 14 14 14 14 15 16 17 16 15 15 15 14 15 15 15 15 15 15 15 16 16 16 16 16 16 16 16 16 16 16 16
14 14 14 14 13 13 13 13 12 13 13 13 13 14 14 15 15 15 16 16 16 15 14 14 14 14 14 14 15 15 15 15 15 15 15 15 16 16 16 16 16 16 16
15 14 14 14 13 13 13 13 13 12 12 12 12 13 13 14 14 14 15 15 15 15 14 14 14 14 14 14 14 15 15 15 15 15 15 15 15 15 16 16 16 16 16
15 15 15 14 14 13 13 13 13 12 12 12 12 12 12 13 13 13 14 14 15 16 15 14 14 14 13 13 13 14 14 14 15 15 15 15 15 15 15 15 15 15 15
15 15 15 15 14 14 14 13 13 12 12 12 12 12 12 13 12 13 13 13 14 15 16 15 14 13 12 13 13 13 13 13 14 14 14 14 15 15 15 15 15 15 15
16 16 15 15 15 14 14 14 13 13 12 12 12 12 12 12 12 12 12 12 13 13 14 15 13 13 12 12 12 12 13 13 14 14 14 14 14 14 14 14 15 15 15
17 17 16 16 15 15 15 15 13 13 13 13 12 12 12 12 12 12 12 12 12 12 13 13 13 13 11 12 12 12 12 12 13 13 13 14 14 14 14 14 14 14 14
17 17 17 16 16 15 15 15 15 14 14 13 13 12 12 12 12 12 12 12 12 12 12 12 12 12 12 11 11 12 12 12 12 12 13 13 13 13 14 14 14 14 14
18 17 17 17 17 16 16 16 15 15 15 14 14 13 13 12 12 12 12 12 12 12 11 12 12 12 12 11 11 11 11 11 12 12 12 13 13 13 13 13 13 14 14
18 18 17 17 17 17 16 16 16 16 15 15 14 14 14 13 13 13 12 12 12 12 12 11 12 12 12 12 11 11 12 12 11 12 12 12 12 13 13 13 13 13 13
18 18 18 17 17 17 16 16 16 15 15 15 15 15 14 14 14 13 13 12 12 11 12 12 12 12 12 12 12 12 12 12 12 11 11 12 12 12 12 12 12 13 13
18 18 17 17 17 16 16 16 16 15 15 15 15 15 14 14 14 14 14 13 13 12 12 12 12 12 12 12 11 11 11 12 12 12 11 11 12 12 12 12 12 12 12
17 17 17 17 16 16 16 16 16 15 15 14 14 14 14 14 14 14 14 14 14 13 12 12 12 12 12 11 11 11 11 11 11 11 11 11 11 11 11 12 12 11 12
16 16 16 16 16 16 16 16 15 15 14 14 14 14 14 14 13 13 13 13 13 13 13 12 12 12 11 11 10 10 10 10 10 10 10 10 11 11 11 11 11 11 12
15 15 15 14 14 14 14 15 14 14 13 13 13 13 13 13 13 13 13 12 12 12 12 12 12 12 12 11 10 10 10 10 10 11 11 10 11 11 11 11 11 11 11
13 13 13 13 13 13 13 13 13 13 12 12 12 12 13 13 13 13 12 12 12 12 11 11 11 11 11 11 11 10 10 10 11 11 11 11 11 11 11 11 11 11 11
Wind_Speed
2 2 1 2 3 2 3 4 5 4 5 6 6 6 6 6 6 6 5 9 8 9 10 12 13 14 14 14 14 14 14 14 14 14 13 12 12 11 10 10 10 9 9
3 2 1 2 2 2 2 2 2 3 3 3 4 4 5 5 6 6 6 8 9 8 9 11 12 14 14 14 14 15 15 15 15 15 15 15 14 13 12 11 11 10 10
3 2 2 1 2 1 1 1 2 2 3 3 3 3 4 4 4 5 6 6 8 11 11 11 12 13 14 14 14 15 16 16 16 17 17 17 16 16 15 13 12 12 12
3 2 2 2 2 2 1 0 2 2 1 2 2 3 3 3 4 4 6 6 6 7 11 13 12 13 14 15 15 15 16 17 17 18 18 18 18 18 17 16 15 14 14
3 2 3 3 1 1 1 1 1 2 2 2 3 3 3 3 3 5 4 6 6 7 7 11 13 14 14 15 15 16 16 17 18 19 19 19 19 20 20 19 18 17 16
2 2 3 3 2 2 2 2 1 2 3 3 4 2 3 2 3 3 5 5 5 8 9 8 10 13 17 16 15 16 17 17 18 19 20 20 20 21 21 21 20 20 19
3 2 3 3 2 3 3 2 2 0 1 2 4 4 4 3 2 2 3 3 3 4 5 6 9 8 10 17 17 17 17 18 19 19 20 20 21 21 22 23 23 22 21
2 2 2 2 3 2 2 2 2 2 1 1 3 3 4 4 3 1 2 1 1 2 3 4 5 6 9 9 12 16 16 17 19 20 20 21 21 22 23 24 24 24 24
3 1 1 2 1 1 3 2 2 2 1 1 2 3 3 2 3 4 1 1 0 1 0 1 2 3 6 8 7 11 12 13 15 17 19 20 22 23 24 24 25 25 25
5 4 3 2 0 1 2 0 3 2 2 0 1 1 3 4 3 3 5 3 1 0 2 2 1 1 2 4 3 0 3 7 10 13 16 18 20 22 24 24 25 25 25
7 6 5 4 3 1 1 2 1 2 1 2 1 0 0 1 4 4 2 2 3 2 1 2 1 2 2 2 2 3 2 3 6 8 11 13 16 18 21 22 23 24 25
6 7 7 6 5 3 2 2 1 1 1 2 2 1 2 2 2 3 4 5 4 3 2 3 3 2 2 2 3 7 3 2 3 5 8 10 12 14 17 20 21 23 24
6 7 7 7 6 5 4 3 3 1 2 1 2 2 2 2 3 4 5 5 5 5 3 5 3 3 3 2 2 7 1 2 4 5 6 8 10 12 14 16 18 20 21
6 6 8 8 8 7 6 5 5 4 3 4 4 3 4 3 3 4 5 6 6 6 5 5 4 5 3 4 3 7 3 1 4 5 6 7 9 10 12 14 16 18 20
6 8 8 9 9 9 8 7 6 5 5 6 6 6 6 4 5 5 5 6 7 8 6 3 5 3 4 5 4 7 7 3 6 8 7 8 9 10 11 13 14 15 17
8 8 9 10 10 9 9 9 8 7 7 7 6 6 6 7 5 6 6 6 7 8 8 6 4 6 5 8 6 8 10 8 12 10 8 9 10 11 11 12 13 14 16
10 10 10 10 10 10 10 10 10 8 9 9 9 9 9 9 7 7 7 7 8 8 9 9 8 7 7 10 9 10 11 11 12 12 9 9 11 12 12 13 14 15 16
11 11 11 11 11 11 11 11 11 11 11 11 11 10 11 9 10 10 8 9 9 9 10 11 10 9 9 9 10 10 12 12 12 9 9 11 13 14 14 14 15 16 16
11 11 11 12 12 12 12 12 12 12 12 12 12 12 12 11 11 10 10 10 9 10 10 11 11 9 9 9 10 11 12 10 13 14 13 16 16 15 14 15 15 16 17
12 12 12 12 12 12 13 13 13 13 13 13 13 13 13 13 13 13 11 12 11 11 11 12 12 11 10 10 9 10 11 10 10 12 11 12 13 15 16 16 16 17 17
12 12 12 12 13 12 12 13 13 13 13 14 14 14 15 14 14 12 12 12 12 12 12 12 12 11 11 9 9 10 10 10 10 10 10 11 11 13 14 19 21 19 17
10 11 12 12 13 12 10 11 12 13 13 14 15 15 15 15 16 17 17 16 15 15 15 13 13 13 12 11 10 10 11 11 11 9 9 11 10 11 11 14 12 13 14
9 10 11 12 13 13 10 12 14 14 15 15 15 15 14 15 16 16 18 21 21 21 19 18 17 16 15 12 12 13 13 13 13 10 9 12 11 12 12 14 11 11 14
7 8 10 11 12 12 10 12 12 14 16 17 17 17 17 17 16 16 16 17 18 19 20 20 19 19 17 14 13 14 14 14 14 13 13 14 13 13 12 13 14 17 19
5 7 8 9 10 10 8 9 10 12 14 18 18 18 18 18 17 16 17 18 19 18 18 20 20 18 16 13 12 12 13 14 14 13 12 14 13 13 13 13 14 18 20
5 7 7 8 9 10 7 8 9 10 13 14 14 16 17 19 18 16 18 18 20 20 18 17 18 19 20 20 19 18 17 16 15 14 12 12 13 12 13 12 12 11 14
Wind_Direction
8 347 336 322 288 274 230 227 231 218 223 224 228 220 228 241 249 241 179 161 190 205 209 207 206 205 206 206 203 200 199 195 192 189 187 186 184 183 183 181 179 175 176
38 360 354 337 319 306 318 273 239 222 225 224 231 228 234 232 229 235 234 181 190 204 213 213 210 207 209 211 210 207 208 206 201 198 196 194 192 191 192 191 189 187 185
47 9 27 338 360 339 291 255 237 229 223 215 218 223 229 235 220 220 234 229 202 197 207 214 212 211 211 215 217 215 214 212 208 205 204 202 200 198 198 198 197 196 194
42 7 27 40 2 317 291 241 264 242 238 244 225 239 218 213 220 224 228 228 234 220 199 202 210 213 214 217 220 220 220 218 214 212 211 209 207 206 205 203 203 203 202
51 33 43 39 340 354 336 313 16 298 262 277 244 221 242 233 227 229 241 238 233 244 234 188 204 214 215 219 221 222 224 223 219 217 216 214 213 212 211 209 208 208 208
66 32 79 45 7 42 32 29 11 344 303 287 276 255 255 254 249 243 250 239 233 235 237 227 214 213 213 218 220 222 225 224 223 221 220 219 218 217 216 215 213 212 212
100 30 56 72 13 50 20 4 332 192 290 311 263 234 215 227 246 242 259 276 247 244 242 230 235 233 211 211 217 222 226 227 225 224 223 222 222 221 220 219 217 216 216
157 130 52 68 60 76 60 33 359 330 24 336 292 257 218 185 204 205 208 216 309 259 235 225 235 232 246 229 208 213 224 227 227 225 224 224 225 224 224 223 221 220 219
183 148 134 52 56 23 76 37 4 352 3 61 352 304 282 246 160 164 167 137 90 336 255 253 246 243 241 243 235 205 216 226 230 230 227 227 228 228 226 225 224 224 222
198 188 182 163 171 59 89 102 55 360 313 351 108 10 347 351 294 187 189 173 150 347 7 315 300 220 257 250 236 175 201 230 235 233 233 232 232 230 229 227 226 226 225
203 202 197 190 194 188 89 43 63 352 344 339 349 312 228 232 269 285 241 222 221 218 271 274 317 333 328 299 277 49 34 268 251 242 238 237 236 234 231 231 230 230 229
203 202 203 202 208 200 173 183 180 168 4 5 324 310 283 278 274 276 274 259 262 246 270 275 261 276 309 307 40 32 11 334 289 264 251 244 241 239 236 234 234 234 234
206 196 204 203 209 204 204 203 210 240 210 229 265 285 295 294 300 291 288 286 284 266 245 246 234 253 264 302 19 2 337 357 321 290 269 256 249 244 241 239 237 236 237
221 192 200 205 209 207 210 208 225 215 221 237 250 273 273 265 274 276 283 292 284 272 238 240 258 246 259 279 1 321 276 18 332 309 287 271 260 253 248 244 243 241 241
214 200 205 208 209 209 214 214 232 229 226 237 236 223 247 256 254 265 268 274 285 290 283 227 245 235 256 280 303 290 288 295 306 295 286 280 271 263 257 251 248 248 246
211 207 210 212 211 210 211 220 229 223 231 237 250 261 256 262 254 256 259 260 263 274 282 285 263 268 288 294 266 278 277 272 262 256 264 275 275 270 264 258 254 251 249
207 209 212 214 214 214 214 217 233 229 231 237 237 238 240 257 259 258 252 254 256 259 267 274 273 264 262 273 282 280 275 271 262 224 236 263 271 269 265 262 258 254 251
212 212 214 216 218 219 217 219 227 230 231 236 238 240 242 239 239 253 258 255 255 257 262 271 276 272 257 258 264 269 271 267 269 237 230 254 263 264 261 259 258 256 255
215 216 216 219 223 224 223 224 228 232 234 236 238 239 240 242 242 243 244 252 253 249 249 261 267 268 267 261 263 262 262 261 267 259 236 238 244 250 254 254 253 253 254
216 218 220 223 226 228 228 229 229 232 236 238 239 240 240 239 239 241 242 245 251 256 254 256 264 264 260 256 255 263 264 251 252 263 264 257 242 238 245 246 245 246 249
220 221 225 228 230 232 232 231 233 235 238 241 241 241 241 239 241 241 246 245 243 246 252 254 259 262 260 258 257 259 264 267 259 257 262 260 250 245 239 234 235 238 241
227 226 228 232 234 237 224 220 235 246 245 245 246 245 244 235 232 229 239 248 252 249 251 256 259 260 262 261 260 264 268 267 266 257 253 260 261 260 258 256 239 217 230
234 234 236 238 241 243 223 214 223 244 252 251 250 248 249 246 232 237 230 229 239 243 247 251 257 260 262 257 259 259 255 261 267 273 267 265 263 262 260 259 235 231 244
247 246 247 247 249 248 222 219 222 240 252 254 252 249 248 252 246 240 242 239 238 236 233 236 245 252 255 260 257 256 265 264 261 256 254 261 264 264 263 261 239 228 239
267 264 262 261 260 261 236 222 224 252 253 254 254 252 249 250 245 233 242 247 249 248 240 232 235 243 250 254 252 253 252 252 256 254 240 245 257 263 264 263 253 228 231
290 285 280 274 270 271 259 232 226 258 263 263 259 256 251 248 249 229 238 245 249 250 251 242 229 236 243 242 232 236 245 249 254 257 249 242 252 260 266 262 257 246 233
Height
1571 1571 1571 1570 1572 1572 1572 1572 1572 1573 1574 1574 1575 1576 1577 1579 1580 1582 1582 1581 1583 1584 1586 1587 1588 1589 1591 1592 1593 1595 1596 1597 1598 1600 1601 1602 1603 1604 1605 1606 1607 1608 1609
1570 1571 1571 1570 1571 1571 1571 1571 1572 1572 1573 1573 1574 1575 1575 1577 1577 1578 1580 1580 1581 1582 1584 1585 1587 1588 1589 1591 1592 1593 1595 1596 1598 1599 1600 1601 1603 1604 1605 1606 1607 1608 1609
1570 1570 1570 1570 1570 1570 1569 1570 1571 1571 1572 1572 1573 1573 1574 1575 1576 1576 1578 1579 1580 1580 1581 1583 1584 1586 1587 1589 1591 1592 1593 1595 1596 1598 1599 1600 1602 1603 1604 1605 1606 1608 1609
1569 1570 1570 1570 1569 1570 1570 1570 1571 1571 1571 1572 1572 1573 1573 1573 1574 1574 1576 1577 1578 1580 1580 1581 1582 1584 1585 1586 1588 1590 1591 1593 1595 1596 1598 1599 1600 1602 1603 1604 1606 1607 1608
1570 1570 1570 1569 1569 1570 1570 1570 1570 1571 1571 1571 1572 1572 1573 1573 1573 1574 1575 1575 1576 1577 1578 1578 1579 1581 1582 1584 1585 1587 1589 1590 1592 1594 1595 1597 1598 1600 1601 1603 1604 1605 1607
1570 1570 1570 1568 1570 1570 1569 1569 1569 1568 1569 1570 1571 1571 1572 1572 1572 1573 1573 1574 1574 1575 1576 1577 1577 1578 1579 1580 1582 1584 1585 1587 1589 1591 1592 1594 1596 1597 1599 1600 1602 1603 1605
1570 1570 1571 1568 1569 1569 1568 1569 1569 1569 1569 1569 1570 1571 1571 1571 1571 1571 1572 1573 1573 1573 1574 1574 1575 1576 1577 1577 1579 1580 1582 1583 1585 1587 1589 1591 1593 1594 1596 1598 1599 1601 1602
1570 1570 1569 1570 1569 1568 1568 1568 1567 1569 1569 1568 1569 1570 1570 1571 1570 1571 1571 1571 1572 1572 1572 1572 1573 1573 1574 1576 1576 1577 1578 1580 1581 1583 1585 1587 1589 1591 1592 1594 1596 1597 1599
1570 1570 1569 1569 1568 1570 1569 1567 1567 1568 1569 1569 1568 1569 1569 1567 1569 1570 1570 1570 1570 1571 1571 1571 1571 1571 1572 1573 1573 1573 1574 1576 1577 1579 1581 1582 1584 1586 1588 1590 1592 1593 1595
1569 1569 1569 1568 1568 1569 1567 1568 1567 1567 1567 1569 1568 1568 1568 1568 1568 1568 1570 1570 1569 1569 1569 1570 1570 1570 1569 1570 1570 1570 1570 1572 1573 1574 1576 1578 1579 1581 1583 1585 1586 1588 1590
1568 1568 1568 1568 1567 1568 1567 1566 1566 1566 1567 1568 1569 1569 1568 1568 1569 1569 1568 1569 1569 1569 1568 1568 1568 1568 1568 1568 1568 1567 1567 1568 1569 1570 1572 1573 1575 1576 1578 1579 1581 1583 1584
1567 1567 1567 1566 1567 1567 1566 1566 1565 1566 1566 1566 1567 1568 1568 1568 1568 1568 1568 1567 1567 1567 1566 1566 1566 1566 1566 1566 1565 1564 1564 1565 1566 1567 1568 1569 1570 1571 1572 1573 1575 1577 1578
1566 1565 1565 1565 1566 1565 1565 1565 1564 1565 1565 1565 1565 1566 1567 1567 1567 1567 1567 1566 1565 1565 1564 1564 1564 1564 1564 1563 1562 1561 1562 1562 1562 1563 1564 1564 1565 1566 1567 1568 1569 1571 1572
1565 1564 1563 1563 1563 1563 1564 1563 1565 1564 1564 1564 1564 1564 1564 1565 1565 1565 1565 1565 1563 1563 1562 1562 1562 1561 1561 1560 1559 1558 1559 1558 1558 1559 1559 1560 1561 1561 1562 1563 1564 1565 1566
1561 1560 1560 1561 1561 1561 1561 1562 1563 1562 1562 1562 1563 1562 1562 1563 1562 1563 1563 1563 1563 1561 1559 1559 1559 1559 1557 1557 1555 1555 1555 1554 1554 1555 1555 1555 1556 1556 1557 1558 1558 1559 1560
1557 1557 1558 1558 1558 1559 1559 1559 1560 1560 1560 1560 1560 1560 1560 1561 1561 1560 1560 1559 1559 1559 1558 1557 1556 1556 1554 1553 1552 1550 1550 1549 1549 1550 1550 1550 1551 1551 1552 1552 1553 1553 1554
1554 1554 1555 1555 1555 1556 1556 1556 1557 1558 1557 1557 1557 1557 1556 1556 1557 1557 1557 1556 1556 1555 1554 1553 1553 1552 1549 1547 1547 1546 1545 1545 1545 1544 1544 1544 1545 1545 1546 1546 1547 1547 1548
1550 1551 1551 1551 1552 1553 1553 1553 1553 1554 1554 1554 1554 1553 1553 1553 1552 1552 1552 1552 1552 1551 1550 1549 1548 1547 1545 1543 1542 1540 1541 1541 1540 1539 1538 1538 1538 1538 1539 1540 1540 1541 1541
1546 1547 1547 1548 1548 1549 1549 1549 1549 1549 1549 1549 1549 1549 1548 1548 1547 1548 1547 1547 1547 1546 1545 1544 1543 1542 1541 1540 1538 1536 1536 1534 1534 1534 1532 1531 1531 1531 1532 1532 1533 1533 1534
1541 1542 1543 1543 1544 1544 1544 1545 1545 1545 1544 1544 1544 1543 1543 1543 1542 1542 1542 1541 1541 1541 1540 1539 1538 1537 1536 1535 1533 1532 1531 1530 1529 1529 1528 1527 1525 1524 1524 1525 1525 1526 1527
1536 1537 1537 1538 1538 1539 1539 1540 1540 1540 1539 1539 1538 1538 1537 1537 1536 1536 1536 1536 1536 1535 1535 1534 1533 1532 1531 1530 1529 1528 1527 1525 1524 1523 1522 1521 1521 1519 1519 1518 1518 1518 1519
1530 1531 1531 1532 1532 1533 1534 1533 1534 1534 1533 1533 1532 1531 1531 1530 1529 1529 1528 1528 1529 1528 1528 1528 1527 1526 1525 1524 1523 1522 1522 1520 1519 1519 1517 1516 1515 1514 1513 1513 1512 1511 1511
1524 1524 1525 1525 1525 1526 1526 1526 1527 1526 1526 1525 1524 1524 1523 1524 1522 1521 1520 1520 1519 1519 1519 1519 1518 1518 1518 1518 1517 1516 1515 1514 1513 1513 1512 1510 1509 1508 1507 1506 1505 1504 1503
1518 1518 1518 1518 1518 1518 1518 1518 1518 1518 1517 1516 1516 1515 1514 1514 1514 1514 1513 1512 1510 1510 1509 1509 1508 1508 1509 1509 1509 1509 1508 1507 1505 1504 1504 1503 1502 1501 1500 1499 1498 1496 1495
1511 1511 1511 1511 1511 1510 1510 1510 1510 1508 1507 1506 1506 1506 1505 1504 1504 1504 1504 1502 1502 1501 1501 1500 1499 1499 1499 1500 1501 1501 1501 1500 1499 1498 1498 1496 1495 1494 1493 1492 1491 1489 1487
1506 1506 1506 1505 1504 1503 1502 1501 1501 1499 1498 1498 1497 1496 1495 1495 1494 1494 1493 1492 1491 1492 1493 1492 1490 1489 1489 1489 1490 1490 1491 1492 1491 1490 1490 1490 1489 1488 1487 1485 1484 1483 1481